Погода в Предтеченске

Россия / Томская область     56°24′48″N   85°02′44″E
темп.,
°C
ветер,
м/с
пор.,
м/с
влажн.,
%
обл.,
%
осадки,
мм/ч
давл.,
гПа
погр.,
м
19 января, вт
вт1901:00−15зюз41194100 0.3 1011468
04:00−18зюз41095100 0.1 1012418
07:00−22зюз389892 0.1 1015204
10:00−24юз4997100 0.0 1015277
13:00−21зюз51094100 0.1 1017498
16:00−20зюз41093100 0.1 1017746
19:00−23з31096100 0.1 1019515
22:00−26з3798100 0.0 1021165
20 января, ср
ср2001:00−29з239991 0.0 102551
04:00−31зюз229973 0.0 102719
07:00−32юз229962 0.0 102919
10:00−33ююз229816 0.0 103119
13:00−28ююз13938 0.0 1032206
16:00−27ю119581 0.0 103246
19:00−31юв119749 0.0 103219
22:00−30вюв129368 0.0 103119
21 января, чт
чт2101:00−28в259281 0.0 1030113
04:00−26в3789100 0.0 1026233
07:00−24в4889100 0.0 1023252
10:00−22в3796100 0.3 1020245
13:00−19юв2495100 0.8 1018252
16:00−16ююз2494100 0.1 1017334
19:00−17ююз2498100 0.1 1016107
22:00−17ююз3897100 0.0 1015217
22 января, пт
пт2201:00−17ю2697100 0.1 1013184
04:00−18ююз369798 0.0 1011184
07:00−16юз279699 0.1 1009270
10:00−16зюз2597100 0.8 1008315
13:00−16з3692100 1.0 1009477
16:00−18зюз3694100 0.0 1010367
19:00−21юз259799 0.0 1012106
22:00−23юз249898 0.0 101389
23 января, сб
сб2301:00−24юз389898 0.0 1013206
04:00−24ююз3797100 0.0 1014241
07:00−24ююз3896100 0.1 1015391
10:00−24юз4896100 0.3 1016503
13:00−23юз4895100 0.4 1017570
16:00−22юз3694100 0.2 1017613
19:00−23юз2699100 0.3 1019268
22:00−23зюз2599100 0.1 1021176